Location: Tucson
(32.2217°N, 110.9265°W)
Time: 06:40:46
(UTC-07:00)

LightSail 2 - Visible Passes

Search period start: 09 December 2019 00:00
Search period end: 19 December 2019 00:00
Orbit: 696 x 730 km, 24.0° (Epoch: 08 December)

Date Brightness Start Highest point End Pass type
(mag) Time Alt. Az. Time Alt. Az. Time Alt. Az.
09 Dec 7.1 18:17:25 10° WSW 18:21:36 25° SSW 18:25:44 10° SE visible
09 Dec 7.8 20:05:05 10° SW 20:06:29 11° SSW 20:06:42 11° SSW visible
10 Dec 7.6 19:05:43 10° SW 19:08:34 15° SSW 19:11:24 10° SSE visible
11 Dec 7.6 18:07:02 10° WSW 18:10:37 19° SSW 18:14:10 10° SSE visible
13 Dec 7.9 17:57:15 10° SW 17:59:34 13° SSW 18:01:52 10° S visible
